Location: Allos
(44.2333°N, 6.6333°E)
Time: 23:48:48
(UTC+00:00)

DX 1 - Pass Details

Date: 09 May 2021
Orbit: 618 x 631 km, 98.5° (Epoch: 24 June)

Event Time Altitude Azimuth Distance (km) Brightness Sun altitude
Rises 20:07:29 0° 359° (N) 2,914 ? -12.9°
Reaches altitude 10° 20:10:13 10° 341° (NNW) 2,000 ? -13.2°
Maximum altitude 20:13:13 19° 297° (WNW) 1,500 ? -13.6°
Drops below altitude 10° 20:16:13 10° 253° (WSW) 1,986 ? -14.0°
Sets 20:18:55 0° 235° (SW) 2,885 ? -14.4°
